Regional Weather Roundup
Issued by NWS Little Rock, AR

Home | Current Version | Previous Version | Graphics & Text | Print | Product List | Glossary On
Versions: 1 2 3 4 5 6 7 8 9 10 11 12 13 14 15 16 17 18 19 20 21 22 23 24 25 26 27 28 29 30 31 32 33 34 35 36 37 38 39 40 41 42 43 44 45 46 47 48 49 50
000
ASUS44 KLZK 150905
RWRLZK

WEATHER ROUNDUP FOR ARKANSAS
NATIONAL WEATHER SERVICE LITTLE ROCK AR
300 AM CST FRI DEC 15 2017

NOTE: "FAIR" INDICATES FEW OR NO CLOUDS BELOW 12,000 FEET WITH NO
SIGNIFICANT WEATHER AND/OR OBSTRUCTIONS TO VISIBILITY.

ARZ001-003-010-029-151000-
NORTHWEST ARKANSAS

CITY           SKY/WX    TMP DP  RH WIND       PRES   REMARKS
FAYETTEVILLE   CLOUDY    27  25  92 S5        30.16S WCI  22
FORT SMITH     PTCLDY    32  26  78 W3        30.20R
HARRISON       MOCLDY    34  25  69 W3        30.13R
BENTONVILLE    CLOUDY    29  25  85 SW3       30.17R
ROGERS         CLOUDY    30  25  81 SW6       30.15S WCI  24
SILOAM SPGS    CLOUDY    29  25  85 S5        30.16S WCI  24
$$

ARZ004-005-016-151000-
NORTH CENTRAL ARKANSAS

CITY           SKY/WX    TMP DP  RH WIND       PRES   REMARKS
BATESVILLE     CLEAR     29  25  85 CALM      30.16S
FLIPPIN        MOCLDY    30  24  78 CALM      30.16S
MTN HOME       CLEAR     31  24  75 W3        30.14R
$$

ARZ040-041-151000-
WEST CENTRAL ARKANSAS

CITY           SKY/WX    TMP DP  RH WIND       PRES   REMARKS
MENA           CLEAR     27  27 100 CALM      30.18R
MOUNT IDA      CLEAR     26  24  92 CALM      30.15R
$$

ARZ009-017-025-026-028-151000-
NORTHEAST ARKANSAS

CITY           SKY/WX    TMP DP  RH WIND       PRES   REMARKS
CORNING        CLOUDY    28  27  93 N3        30.15F
JONESBORO      MOCLDY    28  24  85 CALM      30.16R
NEWPORT        CLEAR     25  23  92 W7        30.17R WCI  17
WALNUT RIDGE   MOCLDY    30  26  85 W6        30.15  WCI  24
BLYTHEVILLE    MOCLDY    28  27  96 CALM      30.15S
$$

ARZ022-023-033-042-044-151000-
CENTRAL ARKANSAS

CITY           SKY/WX    TMP DP  RH WIND       PRES   REMARKS
LITTLE ROCK    PTCLDY    31  26  82 SW3       30.18S
N LITTLE ROCK    N/A     35  24  63 CALM      30.20R
JACKSONVILLE   CLEAR     26  21  84 CALM      30.17R
SEARCY         CLEAR     24  24 100 CALM      30.18R
HOT SPRINGS    CLEAR     31  26  82 CALM      30.18R
RUSSELLVILLE   CLEAR     25  23  92 CALM      30.18R
CLINTON        FAIR      23  21  93 CALM      30.18R
$$

ARZ036-151000-
EAST ARKANSAS

CITY           SKY/WX    TMP DP  RH WIND       PRES   REMARKS
WEST MEMPHIS   CLEAR     26  26 100 CALM      30.14F
$$

ARZ050-053-066-070-073-151000-
SOUTHWEST ARKANSAS

CITY           SKY/WX    TMP DP  RH WIND       PRES   REMARKS
ARKADELPHIA    FAIR      25  22  88 CALM      30.21R
CAMDEN         PTCLDY    28  25  86 CALM      30.21R
TEXARKANA      CLOUDY    35  28  75 CALM      30.21R
EL DORADO      PTCLDY    31  29  92 N5        30.20S WCI  26
DE QUEEN       CLEAR     26  25  96 CALM      30.21R
$$

ARZ056-057-069-151000-
SOUTHEAST ARKANSAS

CITY           SKY/WX    TMP DP  RH WIND       PRES   REMARKS
PINE BLUFF     CLOUDY    31  25  78 CALM      30.19R
STUTTGART      CLOUDY    29  25  85 NW7       30.18R WCI  22
MONTICELLO     PTCLDY    32  26  78 CALM      30.19R

$$





USA.gov is the U.S. government's official web portal to all federal, state and local government web resources and services.